Regional Weather Roundup
Issued by NWS

Home | Current Version | Previous Version | Text Only | Print | Product List | Glossary On
Versions: 1 2 3 4 5 6 7 8 9 10 11 12 13 14 15 16 17 18 19 20 21 22 23 24 25 26 27 28 29 30 31 32 33 34 35 36 37 38 39 40 41 42 43 44 45 46 47 48 49 50
000
ASUS44 KMEG 061410
RWRTN
TENNESSEE HOURLY STATE WEATHER ROUNDUP
NATIONAL WEATHER SERVICE MEMPHIS TN
900 AM CDT FRI MAY 06 2016

TNZ002-004-019-021-049-052-054-088>092-061500-
WEST TENNESSEE

CITY           SKY/WX    TMP DP  RH WIND       PRES   REMARKS
MEMPHIS INTL   SUNNY     64  49  57 VRB6      30.10R
NWS MEMPHIS      N/A     61 N/A N/A MISG        N/A
JACKSON        SUNNY     60  49  66 N6        30.09S
DYERSBURG      SUNNY     57  48  72 NW5       30.10R
UNION CITY     SUNNY     61  48  63 N6        30.08S
LEXINGTON      SUNNY     57  50  77 CALM      30.07R
$$

TNZ008-025-027-028-033-062-065-066-061500-
NORTH MIDDLE TENNESSEE

CITY           SKY/WX    TMP DP  RH WIND       PRES   REMARKS
NASHVILLE      MOSUNNY   60  45  57 VRB5      30.05R
CLARKSVILLE    SUNNY     60  46  59 N8        30.06R
SMYRNA         SUNNY     58  46  64 N9        30.05R
COOKEVILLE     MOSUNNY   54  48  82 NW5       30.01R
CROSSVILLE     SUNNY     55  43  63 N6        30.00R
$$

TNZ061-075-076-078-094-096-097-061500-
SOUTH MIDDLE TENNESSEE

CITY           SKY/WX    TMP DP  RH WIND       PRES   REMARKS
TULLAHOMA      SUNNY     54  48  82 NW7       30.04R
WINCHESTER     SUNNY     54  46  76 N3        30.03S
MCMINNVILLE    SUNNY     54  48  82 NW3       30.02S
COLUMBIA       SUNNY     57  57 100 NW7       30.04S
SHELBYVILLE    SUNNY     55  48  76 NW8       30.04S
$$

TNZ017-018-042-046-047-061500-
NORTHEAST TENNESSEE

CITY           SKY/WX    TMP DP  RH WIND       PRES   REMARKS
TRI CITIES     CLOUDY    52  43  71 W7        29.91R
$$

TNZ012-013-036-069-073-074-061500-
CENTRAL EAST TENNESSEE

CITY           SKY/WX    TMP DP  RH WIND       PRES   REMARKS
KNOXVILLE      MOSUNNY   57  46  66 VRB5      29.97R
OAK RIDGE      SUNNY     58  43  57 CALM      29.98R
GATLINBURG     SUNNY     55  45  67 CALM      29.96R
$$

TNZ083-085-099-061500-
SOUTHEAST TENNESSEE

CITY           SKY/WX    TMP DP  RH WIND       PRES   REMARKS
CHATTANOOGA    MOSUNNY   60  46  59 N10       29.98S
$$

SKY/WX REPORTED AS FAIR MEANS FEW OR NO CLOUDS BELOW
12 THOUSAND FEET.





USA.gov is the U.S. government's official web portal to all federal, state and local government web resources and services.